Volver al catálogo

COSMOS 2338

ActivoMilitarPO
NORAD 24726·PAYLOAD·🇷🇺 Russia

Lanzado Feb 14, 1997 desde Plesetsk Cosmodrome

Loading…

Próximos Pases (próximas 24 horas)

TLE

ActualizadoSource: Space-Track

Época: Sep 14, 2026, 05:56 UTC

1 24726U 97006B   26257.24782389  .00000017  00000-0  37067-4 0  9993
2 24726  82.6014 207.0611 0003757 247.0724 112.9971 12.61394740361703

Sigue COSMOS 2338 en tiempo real con AllMySat

Download on the App Store